User: anonymous   Login
Location: SAPM � Hemmingford
(45.0500°N, 73.5833°W)
Time: 14:33:44
(UTC-04:00)
Language:

Cosmos 1674 Rocket - Orbit

View from above orbital plane
View from above orbital plane
View from above satellite
View from above satellite

Ground track
Ground track

The orbit data is extracted from the following two-line orbital elements,

1 15945U 85069B   14295.50947400  .00000681  00000-0  79870-4 0  7990
2 15945 082.5259 319.9957 0018919 234.7197 237.0958 14.83441659577391
Epoch (UTC): 22 October 2014 12:13:38
Eccentricity: 0.0018919
inclination: 82.5259°
perigee height: 605 km
apogee height: 632 km
right ascension of ascending node: 319.9957°
argument of perigee: 234.7197°
revolutions per day: 14.83441659
mean anomaly at epoch: 237.0958°
orbit number at epoch: 57739

The dashed part of the orbit path shows where the satellite is in the earth's shadow,  

DLR